Edinburg, TX

6:18 PM CST on November 18, 2017 (GMT -0600)
Edinburg

Weather History for KEBG - April, 2013

Change the Weather History Date:

Wednesday, April 3, 2013

  Actual Average (KMFE) Record (KMFE)
Temperature  
Mean Temperature 72 °F -  
Max Temperature 79 °F 82 °F 99 °F (2014)
Min Temperature 64 °F 63 °F 46 °F (1987)
Cooling Degree Days 6    
Growing Degree Days 22 (Base 50)    
Moisture  
Dew Point 61 °F    
Average Humidity 65    
Maximum Humidity 87    
Minimum Humidity 45    
Precipitation  
Precipitation 0.00 in - - ()
Sea Level Pressure  
Sea Level Pressure 29.90 in    
Wind  
Wind Speed 10 mph (NNE)    
Max Wind Speed 20 mph    
Max Gust Speed 23 mph    
Visibility 7 miles    
Events      
Averages and records for this station are not official NWS values.
T = Trace of Precipitation, MM = Missing Value Source: NWS Daily Summary

Daily Weather History Graph

Daily Weather History Graph

Search for Another Location

Airport or City:

Trip Planner

Search our weather history database for the weather conditions in past years. The results will help you decide how hot, cold, wet, or windy it might be!

Date:

Astronomy

Apr. 03, 2013 Rise Set
Actual Time 7:21 AM CDT 7:50 PM CDT
Civil Twilight 6:57 AM CDT 8:13 PM CDT
Nautical Twilight 6:30 AM CDT 8:41 PM CDT
Astronomical Twilight 6:02 AM CDT 9:09 PM CDT
Moon 2:27 AM CDT (4/3) 1:38 PM CDT (4/3)
Length of Visible Light 13h 16m
Length of Day
12h 29m
Last Quarter, 44% of the Moon is Illuminated
Apr 3
Last Quarter
Apr 10
New
Apr 18
First Quarter
Apr 25
Full
May 2
Last Quarter

Hourly Weather History & Observations

Time (CDT) Temp. Dew Point Humidity Pressure Visibility Wind Dir Wind Speed Gust Speed Precip Events Conditions
12:15 AM 75.2 °F 68.2 °F 79% 29.81 in 7.0 mi SE 8.1 mph - N/A   Overcast
12:35 AM 75.2 °F 68.0 °F 78% 29.80 in 7.0 mi SE 6.9 mph - N/A   Overcast
12:55 AM 75.4 °F 68.0 °F 78% 29.80 in 7.0 mi SE 6.9 mph - N/A   Overcast
1:15 AM 75.6 °F 68.0 °F 77% 29.81 in 7.0 mi ESE 3.5 mph - N/A   Overcast
1:35 AM 75.7 °F 68.0 °F 77% 29.82 in 7.0 mi Calm Calm - N/A   Overcast
1:55 AM 75.7 °F 68.0 °F 77% 29.81 in 7.0 mi ENE 4.6 mph - N/A   Overcast
2:15 AM 75.7 °F 68.0 °F 77% 29.81 in 7.0 mi ENE 5.8 mph - N/A   Overcast
2:35 AM 75.7 °F 68.0 °F 77% 29.81 in 7.0 mi ENE 5.8 mph - N/A   Overcast
2:55 AM 75.6 °F 68.0 °F 77% 29.80 in 7.0 mi ENE 6.9 mph - N/A   Overcast
3:15 AM 75.6 °F 68.0 °F 77% 29.80 in 7.0 mi ENE 5.8 mph - N/A   Overcast
3:35 AM 75.4 °F 68.0 °F 78% 29.80 in 7.0 mi NE 6.9 mph - N/A   Overcast
3:55 AM 75.4 °F 68.2 °F 78% 29.80 in 7.0 mi ENE 5.8 mph - N/A   Overcast
4:15 AM 75.2 °F 68.2 °F 79% 29.79 in 7.0 mi NE 6.9 mph - N/A   Overcast
4:35 AM 75.2 °F 68.4 °F 79% 29.79 in 7.0 mi ENE 5.8 mph - N/A   Overcast
4:55 AM 74.7 °F 68.0 °F 80% 29.78 in 7.0 mi ENE 4.6 mph - N/A   Scattered Clouds
5:15 AM 73.6 °F 68.0 °F 83% 29.79 in 7.0 mi NE 5.8 mph - N/A   Clear
5:35 AM 73.2 °F 68.2 °F 84% 29.79 in 7.0 mi NNE 5.8 mph - N/A   Clear
5:55 AM 72.7 °F 68.4 °F 86% 29.79 in 5.0 mi NNE 5.8 mph - N/A   Haze
6:15 AM 72.9 °F 68.9 °F 87% 29.80 in 5.0 mi NNE 10.4 mph - N/A   Mostly Cloudy
6:55 AM 72.9 °F 68.9 °F 87% 29.81 in 4.0 mi ENE 6.9 mph - N/A   Mostly Cloudy
7:15 AM 73.4 °F 69.3 °F 87% 29.82 in 5.0 mi East 6.9 mph - N/A   Overcast
7:35 AM 72.5 °F 68.0 °F 86% 29.83 in 7.0 mi ENE 13.8 mph 17.3 mph N/A   Overcast
7:55 AM 72.1 °F 66.0 °F 81% 29.84 in 7.0 mi ENE 12.7 mph - N/A   Overcast
8:15 AM 72.5 °F 65.3 °F 78% 29.85 in 7.0 mi ENE 9.2 mph - N/A   Overcast
8:35 AM 72.5 °F 64.9 °F 77% 29.86 in 7.0 mi East 8.1 mph - N/A   Overcast
8:55 AM 72.7 °F 62.8 °F 71% 29.88 in 4.0 mi NE 9.2 mph - N/A   Haze
9:15 AM 72.7 °F 60.8 °F 66% 29.90 in 5.0 mi NE 15.0 mph - N/A   Haze
9:35 AM 72.5 °F 61.2 °F 67% 29.91 in 7.0 mi NNE 18.4 mph - N/A   Overcast
9:55 AM 71.6 °F 60.4 °F 68% 29.92 in 7.0 mi NNE 16.1 mph 21.9 mph N/A   Overcast
10:15 AM 72.5 °F 60.1 °F 65% 29.90 in 7.0 mi NE 12.7 mph 19.6 mph N/A   Overcast
10:35 AM 73.4 °F 59.0 °F 61% 29.91 in 5.0 mi NE 18.4 mph - N/A   Haze
10:55 AM 73.2 °F 60.3 °F 64% 29.93 in 5.0 mi NNE 16.1 mph - N/A   Haze
11:15 AM 71.6 °F 60.3 °F 67% 29.94 in 7.0 mi North 15.0 mph - N/A   Overcast
11:35 AM 70.9 °F 60.1 °F 69% 29.94 in 7.0 mi North 12.7 mph 18.4 mph N/A   Overcast
11:55 AM 71.8 °F 59.9 °F 66% 29.93 in 7.0 mi NNE 11.5 mph - N/A   Scattered Clouds
12:15 PM 71.2 °F 59.2 °F 66% 29.90 in 7.0 mi NE 13.8 mph - N/A   Clear
12:35 PM 71.8 °F 59.0 °F 64% 29.89 in 7.0 mi NE 12.7 mph - N/A   Clear
12:55 PM 74.1 °F 58.6 °F 58% 29.90 in 7.0 mi NNE 12.7 mph 17.3 mph N/A   Scattered Clouds
1:15 PM 76.6 °F 58.3 °F 53% 29.89 in 7.0 mi NNE 10.4 mph - N/A   Scattered Clouds
1:35 PM 78.1 °F 56.8 °F 48% 29.90 in 7.0 mi North 6.9 mph - N/A   Scattered Clouds
1:55 PM 78.3 °F 56.5 °F 47% 29.90 in 7.0 mi North 9.2 mph 16.1 mph N/A   Overcast
2:15 PM 78.8 °F 55.8 °F 45% 29.90 in 7.0 mi NNW 11.5 mph - N/A   Overcast
2:35 PM 77.5 °F 56.1 °F 47% 29.90 in 7.0 mi North 15.0 mph 19.6 mph N/A   Overcast
2:55 PM 76.1 °F 56.3 °F 50% 29.90 in 5.0 mi North 15.0 mph 23.0 mph N/A   Haze
3:15 PM 76.8 °F 56.3 °F 49% 29.91 in 7.0 mi North 13.8 mph - N/A   Overcast
3:35 PM 77.2 °F 56.5 °F 49% 29.90 in 7.0 mi North 10.4 mph - N/A   Overcast
3:55 PM 77.9 °F 56.5 °F 48% 29.90 in 7.0 mi NNW 15.0 mph - N/A   Overcast
4:15 PM 77.5 °F 56.7 °F 48% 29.90 in 7.0 mi North 12.7 mph 19.6 mph N/A   Overcast
4:35 PM 76.6 °F 56.7 °F 50% 29.90 in 7.0 mi NNW 16.1 mph 20.7 mph N/A   Overcast
4:55 PM 77.4 °F 56.7 °F 49% 29.90 in 10.0 mi NNW 16.1 mph 19.6 mph N/A   Overcast
5:15 PM 78.1 °F 56.5 °F 47% 29.90 in 7.0 mi NNW 15.0 mph 21.9 mph N/A   Overcast
5:35 PM 78.3 °F 56.3 °F 47% 29.89 in 7.0 mi North 11.5 mph 23.0 mph N/A   Overcast
5:55 PM 78.8 °F 56.3 °F 46% 29.89 in 7.0 mi North 15.0 mph 20.7 mph N/A   Scattered Clouds
6:15 PM 78.3 °F 56.5 °F 47% 29.90 in 7.0 mi NNW 15.0 mph 18.4 mph N/A   Scattered Clouds
6:35 PM 77.0 °F 56.3 °F 49% 29.90 in 7.0 mi NNW 18.4 mph 23.0 mph N/A   Mostly Cloudy
6:55 PM 76.5 °F 56.3 °F 50% 29.91 in 7.0 mi NNW 17.3 mph 20.7 mph N/A   Overcast
7:15 PM 75.6 °F 55.9 °F 50% 29.93 in 5.0 mi NNW 13.8 mph - N/A   Haze
7:35 PM 74.7 °F 55.9 °F 52% 29.94 in 7.0 mi NNW 15.0 mph - N/A   Overcast
7:55 PM 73.9 °F 55.8 °F 53% 29.95 in 7.0 mi North 11.5 mph - N/A   Overcast
8:15 PM 73.6 °F 55.9 °F 54% 29.96 in 7.0 mi North 19.6 mph 23.0 mph N/A   Overcast
8:35 PM 71.8 °F 54.9 °F 55% 29.98 in 10.0 mi NNW 17.3 mph - N/A   Overcast
8:55 PM 70.9 °F 55.0 °F 57% 30.00 in 10.0 mi North 18.4 mph - N/A   Overcast
9:15 PM 69.6 °F 55.0 °F 60% 30.02 in 7.0 mi North 18.4 mph - N/A   Overcast
9:35 PM 68.5 °F 54.5 °F 61% 30.04 in 7.0 mi North 18.4 mph 23.0 mph N/A   Overcast
9:55 PM 67.5 °F 54.3 °F 63% 30.05 in 7.0 mi North 17.3 mph 20.7 mph N/A   Overcast
10:15 PM 66.6 °F 54.5 °F 65% 30.07 in 7.0 mi North 16.1 mph - N/A   Overcast
10:35 PM 66.2 °F 54.1 °F 65% 30.08 in 7.0 mi North 12.7 mph - N/A   Overcast
10:55 PM 66.2 °F 54.5 °F 66% 30.09 in 10.0 mi North 12.7 mph - N/A   Overcast
11:15 PM 65.7 °F 54.5 °F 67% 30.10 in 10.0 mi North 12.7 mph - N/A   Overcast
11:35 PM 65.5 °F 54.5 °F 68% 30.10 in 10.0 mi North 15.0 mph - N/A   Overcast
11:55 PM 64.9 °F 54.1 °F 68% 30.11 in 7.0 mi North 11.5 mph - N/A   Overcast